Sella Ness, United Kingdom

8:08 AM BST on September 20, 2017 (GMT +0100)
Scatsta

Weather History for EGPM - February, 2013

Change the Weather History Date:

Sunday, February 3, 2013

  Actual Average Record
Temperature  
Mean Temperature 38 °F -  
Max Temperature 42 °F 41 °F 53 °F (2004)
Min Temperature 35 °F 35 °F 26 °F (2001)
Degree Days  
Heating Degree Days 26    
Moisture  
Dew Point 34 °F    
Average Humidity 77    
Maximum Humidity 93    
Minimum Humidity 66    
Precipitation  
Precipitation 0.00 in - - ()
Sea Level Pressure  
Sea Level Pressure 29.27 in    
Wind  
Wind Speed 23 mph ()    
Max Wind Speed 40 mph    
Max Gust Speed 53 mph    
Visibility 5.5 miles    
Events Rain    
Averages and records for this station are not official NWS values.
T = Trace of Precipitation, MM = Missing Value Source: Averaged Metar Reports

Daily Weather History Graph

Daily Weather History Graph

Search for Another Location

Airport or City:

Trip Planner

Search our weather history database for the weather conditions in past years. The results will help you decide how hot, cold, wet, or windy it might be!

Date:

Astronomy

Feb. 03, 2013 Rise Set
Actual Time 8:16 AM GMT 4:22 PM GMT
Civil Twilight 7:28 AM GMT 5:10 PM GMT
Nautical Twilight 6:37 AM GMT 6:01 PM GMT
Astronomical Twilight 5:48 AM GMT 6:50 PM GMT
Moon 1:28 AM GMT (2/3) 9:43 AM GMT (2/3)
Length of Visible Light 9h 41m
Length of Day
8h 06m
Waning Gibbous, 51% of the Moon is Illuminated
Feb 3
Waning Gibbous
Feb 3
Last Quarter
Feb 10
New
Feb 17
First Quarter
Feb 25
Full

Hourly Weather History & Observations

Time (GMT) Temp. Windchill Dew Point Humidity Pressure Visibility Wind Dir Wind Speed Gust Speed Precip Events Conditions
12:20 AM 39.2 °F 29.0 °F 33.8 °F 81% 29.65 in 6.2 mi South 21.9 mph - N/A   Partly Cloudy
12:50 AM 39.2 °F 28.7 °F 33.8 °F 81% 29.59 in 6.2 mi South 23.0 mph - N/A Rain Rain
1:20 AM 39.2 °F 28.0 °F 33.8 °F 81% 29.50 in 6.2 mi South 26.5 mph 42.6 mph N/A Rain Rain
1:50 AM 37.4 °F 25.2 °F 32.0 °F 81% 29.44 in 6.2 mi South 28.8 mph - N/A Rain Rain
2:20 AM 35.6 °F 22.3 °F 32.0 °F 87% 29.42 in 1.7 mi South 31.1 mph 43.7 mph N/A   Heavy Drizzle
2:50 AM 35.6 °F 21.5 °F 33.8 °F 93% 29.33 in - South 35.7 mph 48.3 mph N/A Rain Heavy Rain
3:20 AM 35.6 °F 20.8 °F 33.8 °F 93% 29.30 in 0.9 mi South 40.3 mph 51.8 mph N/A Rain Heavy Rain
3:50 AM 37.4 °F 23.5 °F 35.6 °F 93% 29.24 in - South 39.1 mph 51.8 mph N/A Rain Rain
4:20 AM 39.2 °F 26.3 °F 37.4 °F 93% 29.21 in 5.0 mi SSW 36.8 mph - N/A Rain Light Rain
4:50 AM 41.0 °F 31.1 °F 39.2 °F 93% 29.21 in 6.2 mi SW 23.0 mph - N/A Rain Rain
5:20 AM 42.8 °F 33.1 °F 35.6 °F 76% 29.21 in 6.2 mi West 25.3 mph 36.8 mph N/A   Partly Cloudy
5:50 AM 42.8 °F 33.3 °F 37.4 °F 81% 29.18 in 5.6 mi West 24.2 mph - N/A Rain Rain
6:20 AM 42.8 °F 32.1 °F 35.6 °F 76% 29.18 in 6.2 mi West 31.1 mph - N/A Rain Rain
6:50 AM 41.0 °F 29.1 °F 35.6 °F 81% 29.18 in 5.0 mi West 34.5 mph 52.9 mph N/A Rain Rain
7:20 AM 41.0 °F 29.7 °F 35.6 °F 81% 29.18 in 6.2 mi West 31.1 mph 46.0 mph N/A   Scattered Clouds
7:50 AM 42.8 °F 31.8 °F 35.6 °F 76% 29.18 in 5.0 mi West 33.4 mph 48.3 mph N/A   Scattered Clouds
8:20 AM 42.8 °F 32.5 °F 33.8 °F 70% 29.18 in 5.6 mi West 28.8 mph 44.9 mph N/A   Mostly Cloudy
8:50 AM 42.8 °F 32.5 °F 33.8 °F 70% 29.21 in 5.0 mi West 28.8 mph 42.6 mph N/A   Scattered Clouds
9:20 AM 42.8 °F 32.5 °F 33.8 °F 70% 29.21 in 6.2 mi West 28.8 mph 44.9 mph N/A   Partly Cloudy
9:50 AM 42.8 °F 32.9 °F 32.0 °F 66% 29.24 in 6.2 mi West 26.5 mph 39.1 mph N/A   Partly Cloudy
10:20 AM 42.8 °F 32.5 °F 32.0 °F 66% 29.24 in 6.2 mi West 28.8 mph 46.0 mph N/A   Partly Cloudy
10:50 AM 42.8 °F 32.9 °F 32.0 °F 66% 29.24 in 6.2 mi West 26.5 mph 40.3 mph N/A   Partly Cloudy
11:20 AM 41.0 °F 31.1 °F 33.8 °F 76% 29.27 in 6.2 mi WNW 23.0 mph 35.7 mph N/A   Scattered Clouds
11:50 AM 42.8 °F 32.7 °F 33.8 °F 70% 29.27 in 6.2 mi West 27.6 mph 39.1 mph N/A   Partly Cloudy
12:20 PM 42.8 °F 32.9 °F 32.0 °F 66% 29.27 in 6.2 mi West 26.5 mph 39.1 mph N/A   Partly Cloudy
12:50 PM 39.2 °F 28.3 °F 33.8 °F 81% 29.30 in 6.2 mi West 25.3 mph 38.0 mph N/A   Partly Cloudy
1:20 PM 39.2 °F 28.5 °F 35.6 °F 87% 29.30 in 5.0 mi WNW 24.2 mph 35.7 mph N/A Rain Light Rain
1:50 PM 41.0 °F 31.1 °F 33.8 °F 76% 29.33 in 6.2 mi West 23.0 mph 34.5 mph N/A   Partly Cloudy
2:20 PM 42.8 °F 33.3 °F 33.8 °F 70% 29.33 in 6.2 mi West 24.2 mph - N/A   Drizzle
2:50 PM 42.8 °F 33.1 °F 33.8 °F 70% 29.33 in 6.2 mi West 25.3 mph 38.0 mph N/A   Partly Cloudy
3:20 PM 42.8 °F 33.5 °F 33.8 °F 70% 29.33 in 6.2 mi WNW 23.0 mph - N/A   Scattered Clouds
3:50 PM 42.8 °F 34.0 °F 33.8 °F 70% 29.33 in 6.2 mi West 20.7 mph 32.2 mph N/A   Partly Cloudy
4:20 PM 42.8 °F 33.8 °F 33.8 °F 70% 29.33 in 6.2 mi West 21.9 mph - N/A   Partly Cloudy
4:50 PM 42.8 °F 35.1 °F 33.8 °F 70% 29.33 in 6.2 mi West 16.1 mph - N/A   Unknown
5:20 PM 42.8 °F 34.8 °F 33.8 °F 70% 29.33 in 6.2 mi West 17.3 mph - N/A   Unknown
5:50 PM 42.8 °F 36.2 °F 33.8 °F 70% 29.33 in 6.2 mi West 12.7 mph - N/A   Partly Cloudy
6:20 PM 41.0 °F 33.9 °F 32.0 °F 70% 29.33 in 6.2 mi West 12.7 mph - N/A   Scattered Clouds
6:50 PM 39.2 °F 31.6 °F 32.0 °F 75% 29.33 in 6.2 mi WSW 12.7 mph - N/A   Partly Cloudy
7:20 PM 41.0 °F 34.7 °F 32.0 °F 70% 29.30 in 6.2 mi WSW 10.4 mph - N/A   Partly Cloudy
7:50 PM 41.0 °F 33.5 °F 32.0 °F 70% 29.30 in 6.2 mi WSW 13.8 mph - N/A   Unknown
8:20 PM 41.0 °F 33.9 °F 32.0 °F 70% 29.27 in 6.2 mi WSW 12.7 mph - N/A   Unknown
8:50 PM 41.0 °F 34.7 °F 33.8 °F 76% 29.24 in 6.2 mi SW 10.4 mph - N/A Rain Rain
9:20 PM 41.0 °F 33.5 °F 33.8 °F 76% 29.21 in 6.2 mi SSW 13.8 mph - N/A   Drizzle
9:50 PM 39.2 °F 32.0 °F 33.8 °F 81% 29.18 in 5.0 mi SSW 11.5 mph - N/A Rain Rain
10:20 PM 39.2 °F 31.2 °F 35.6 °F 87% 29.15 in - South 13.8 mph - N/A Rain Rain
10:50 PM 39.2 °F 29.6 °F 35.6 °F 87% 29.12 in 1.7 mi South 19.6 mph 31.1 mph N/A Rain Heavy Rain
11:20 PM 39.2 °F 28.3 °F 35.6 °F 87% 29.06 in 3.7 mi SSE 25.3 mph - N/A Rain Light Rain
11:50 PM 39.2 °F 27.6 °F 37.4 °F 93% 29.00 in 1.4 mi SSE 28.8 mph - N/A Rain Rain